Regional Weather Roundup
Issued by NWS

Home | Current Version | Previous Version | Text Only | Print | Product List | Glossary On
Versions: 1 2 3 4 5 6 7 8 9 10 11 12 13 14 15 16 17 18 19 20 21 22 23 24 25 26 27
000
ASUS45 KSLC 221610
RWRUT

UTAH REGIONAL WEATHER ROUNDUP
NATIONAL WEATHER SERVICE SALT LAKE CITY UT
900 AM MST MON JAN 22 2018

UTZ001>011-023>025-221700-

NORTHERN UTAH

CITY           SKY/WX    TMP DP  RH WIND       PRES   REMARKS
BRIGHAM CITY   CLOUDY    25  19  78 CALM      30.31S
HILL AFB       PTSUNNY   17   9  68 E14       30.28S WCI   3
LOGAN          CLOUDY    18  12  77 CALM      30.29S
OGDEN          CLOUDY    20  11  68 SE6       30.29R WCI  12
SALT LAKE CITY PTSUNNY   27  18  69 SE12      30.31R WCI  17
TOOELE VALLEY  CLOUDY    23  19  86 S13       30.30R WCI  11
WENDOVER       CLOUDY    22  15  75 NE5       30.28S WCI  16
HEBER CITY       N/A      7   3  85 CALM      30.30S
WEST JORDAN    MOSUNNY   21  18  88 S14       30.31R WCI   8

$$

UTZ011>015-024>027-221700-

CENTRAL/NORTHEAST UTAH

CITY           SKY/WX    TMP DP  RH WIND       PRES   REMARKS
PROVO AIRPORT  MOSUNNY   20  14  77 E3        30.35S
MOAB/CANYONLAN SUNNY     23  19  85 CALM      30.31R
DELTA          PTSUNNY    7   5  92 SE5       30.33R WCI  -2
PRICE          MOSUNNY   18   8  65 N6        30.25R WCI  10
RICHFIELD      SUNNY      3   1  92 CALM      30.35R
ROOSEVELT      MOSUNNY   14   9  79 CALM      30.32R
VERNAL         MOSUNNY    9   4  80 SW3       30.29R

$$

UTZ013>016-019>022-027-221700-

SOUTHERN UTAH

CITY           SKY/WX    TMP DP  RH WIND       PRES   REMARKS
BRYCE CANYON   MOSUNNY    7   3  84 W6        30.23S WCI  -3
CEDAR CITY     PTSUNNY   11  10  96 CALM      30.27R
MILFORD        NOT AVBL
ST GEORGE      MOSUNNY   30  22  72 CALM      30.37R
HANKSVILLE     PTSUNNY   14   5  67 CALM      30.35R
KANAB          SUNNY     19  12  73 MISG      30.35R
BLANDING         N/A     21  11  66 N6        30.35R WCI  13

$$

REGIONAL REPORTS     COLORADO/ARIZONA

CITY           SKY/WX    TMP DP  RH WIND       PRES   REMARKS
CRAIG, CO      MOSUNNY   -3  -7  82 CALM      30.28R
GRAND JUNCTION SUNNY     14  10  84 E12       30.33R WCI   0
RIFLE, CO      SUNNY     16  10  77 NE3       30.33R
MONTROSE, CO   SUNNY     16   7  67 SE6       30.34R WCI   7
CORTEZ, CO     MOSUNNY   10   4  76 E12       30.26R WCI  -5
COLORADO CITY    N/A     23  19  86 CALM      30.32S
PAGE, AZ       SUNNY     29  12  49 CALM      30.31R
GRAND CANYON   PTSUNNY   14   5  67 NE6       30.25R WCI   5
KINGMAN, AZ    MOSUNNY  N/A N/A N/A E3        30.30R
FLAGSTAFF, AZ  MOSUNNY    8   5  87 CALM      30.24R

$$

REGIONAL REPORTS    NEVADA/IDAHO/WYOMING

CITY           SKY/WX    TMP DP  RH WIND       PRES   REMARKS
LAS VEGAS, NV  MOSUNNY   39  24  55 S3        30.34S
ELY, NY        CLOUDY    12   7  80 S13       30.26F WCI  -3
ELKO, NV       CLOUDY    28  24  85 SW8       30.24S WCI  20
POCATELLO, ID  CLOUDY    31  19  61 S18       30.21R WCI  19
BURLEY, ID     LGT SNOW  33  25  72 S16       30.19R WCI  23
FORT BRIDGER,    N/A     13   5  68 W10       30.21R WCI   0
EVANSTON, WY   PTSUNNY    9   7  92 SW9       30.19R WCI  -4
ROCK SPRINGS,  MOSUNNY   11   6  81 SW12      30.18R WCI  -3

$$




USA.gov is the U.S. government's official web portal to all federal, state and local government web resources and services.